Regional Weather Roundup
Issued by NWS Bismarck, ND

Home | Current Version | Previous Version | Text Only | Print | Product List | Glossary On
Versions: 1 2 3 4 5 6 7 8 9 10 11 12 13 14 15 16 17 18 19 20 21 22 23 24 25 26 27 28 29 30 31 32 33 34 35 36 37 38 39 40 41 42 43 44 45 46 47 48 49 50
000
ASUS43 KBIS 111302
RWRBIS

NWR BROADCAST TEXT
NATIONAL WEATHER SERVICE BISMARCK ND
700 AM CST SUN DEC 11 2016

NOTE: "FAIR" INDICATES FEW OR NO CLOUDS BELOW 12,000 FEET WITH NO
SIGNIFICANT WEATHER AND/OR OBSTRUCTIONS TO VISIBILITY.


CITY           SKY/WX    TMP DP  RH WIND       PRES   REMARKS
WILLISTON      CLOUDY    -8 -12  83 N3        29.99R
MINOT          LGT SNOW  -2  -7  79 NE7       29.99S WCI -15
MINOT AFB      FLURRIES  -4  -9  80 NE7       30.00S WCI -18
BISMARCK       LGT SNOW   1  -4  79 NE3       29.97R
DICKINSON      CLOUDY     3  -1  83 NW8       29.85R WCI -10
GARRISON         N/A     -2  -7  79 NE6       29.95S WCI -14
HETTINGER ARPT CLOUDY    10   4  76 NW22G29   29.86R WCI -10
JAMESTOWN      LGT SNOW   1  -3  83 NE3       29.94F FOG
CARRINGTON     FLURRIES   1  -4  78 NE6       29.99R WCI -10
HAZEN          FLURRIES   0  -4  85 CALM      29.98R
STANLEY        CLOUDY    -4  -8  84 NE3       29.96R
TIOGA          FAIR      -8  -9  92 E5        29.96R WCI -19
WATFORD CITY   CLOUDY     0  -6  78 N3        29.96R
$$

CITY           SKY/WX    TMP DP  RH WIND       PRES   REMARKS
GRAND FORKS    LGT SNOW   4  -2  76 NE9       30.06F VSB 1   WCI -10
GRAND FORKS AF LGT SNOW   1  -3  80 NE8       30.07S WCI -12
DEVILS LAKE    LGT SNOW   0  -4  83 E5        30.01S FOG     WCI -10
FARGO          LGT SNOW  10   5  80 NE8       30.00F WCI  -2
GRAFTON        LGT SNOW   1  -2  85 E5        30.12R WCI  -8
GWINNER        CLOUDY    10   9  92 CALM      29.95S
LANGDON        LGT SNOW  -2  -6  84 E10       30.02R WCI -19
$$

CITY           SKY/WX    TMP DP  RH WIND       PRES   REMARKS
ABERDEEN       CLOUDY    10   4  76 N7        29.93S WCI  -1
MOBRIDGE       CLOUDY     6  -1  73 NW7       29.89S WCI  -6
BUFFALO          N/A     13   7  77 NW22      29.76R WCI  -6
RAPID CITY     CLOUDY     0  -4  83 W5        29.86R WCI -10
GLASGOW        CLOUDY    -9 -13  83 N7        29.97S WCI -24
SIDNEY         CLOUDY   -13 -18  78 NW9       29.99R WCI -31
WOLF POINT     CLOUDY   -16 -20  82 W6        30.02R WCI -31
GLENDIVE       CLOUDY    -5  -9  83 NW10      29.96R WCI -23
MILES CITY     CLOUDY     0  -7  72 N7        29.97R WCI -13
BAKER          CLOUDY     0  -5  79 NW16      29.89R WCI -20
$$

CITY           SKY/WX    TMP DP  RH WIND       PRES   REMARKS
BILLINGS       FOG        3   0  87 NE5       29.88R VSB 1/8 WCI  -6
GREAT FALLS    CLOUDY     2  -1  88 CALM      29.82F
$$





USA.gov is the U.S. government's official web portal to all federal, state and local government web resources and services.